Hourly Data Report for October 04, 2016

All times are specified in Local Standard Time (LST). Add 1 hour to adjust for Daylight Saving Time where and when it is observed.

BAKER LAKE A
NUNAVUT

64°17'56.000" N
96°04'40.000" W
18.60 m
2300503
71926
YBK

Download Data

Hourly Data (October 2016)
Hourly Data Report for October 4, 2016
Temp Definition
°C
Dew Point Temp Definition
°C
Rel Hum Definition
%
Wind Dir Definition
10's deg

Wind Spd Definition
km/h
Visibility Definition
km
Stn Press Definition
kPa
Hmdx Definition


Wind Chill Definition


Weather Definition


TIME
00:00 Legend Double Dagger -1.5 -4.2 82 32 45 24.1 100.13   -10 Snow
01:00 Legend Double Dagger -1.9 -4.7 81 33 41 24.1 100.28   -10 LegendNANA
02:00 Legend Double Dagger -2.1 -4.9 81 31 38 24.1 100.41   -10 LegendNANA
03:00 Legend Double Dagger -1.3 -4.7 78 32 39 24.1 100.49   -9 Cloudy
04:00 Legend Double Dagger -1.1 -3.0 87 32 41 16.1 100.54   -9 LegendNANA
05:00 Legend Double Dagger -1.4 -4.8 78 30 37 24.1 100.70   -9 LegendNANA
06:00 Legend Double Dagger -2.6 -5.4 81 31 34 32.2 100.81   -10 Mainly Clear
07:00 Legend Double Dagger -2.7 -4.6 87 31 31 32.2 100.90   -10 Snow
08:00 Legend Double Dagger -2.4 -4.3 87 31 35 32.2 101.03   -10 Snow,Blowing Snow
09:00 Legend Double Dagger -2.6 -4.2 89 31 41 4.8 101.14   -11 Snow,Blowing Snow
10:00 Legend Double Dagger -2.1 -5.4 78 32 42 40.2 101.21   -10 Snow
11:00 Legend Double Dagger -2.1 -5.6 77 31 41 40.2 101.29   -10 LegendNANA
12:00 Legend Double Dagger -2.1 -6.3 73 31 48 40.2 101.34   -11 Mainly Clear
13:00 Legend Double Dagger -1.6 -5.6 74 31 31 40.2 101.43   -9 LegendNANA
14:00 Legend Double Dagger -2.1 -5.8 76 30 35 40.2 101.51   -10 LegendNANA
15:00 Legend Double Dagger -1.7 -5.6 75 31 30 40.2 101.56   -9 Mostly Cloudy
16:00 Legend Double Dagger -2.2 -6.2 74 31 36 40.2 101.63   -10 Snow
17:00 Legend Double Dagger -2.6 -4.6 86 28 27 40.2 101.70   -10 Snow
18:00 Legend Double Dagger -1.9 -3.5 89 28 21 24.1 101.75   -8 Snow
19:00 Legend Double Dagger -1.5 -3.2 88 29 18 24.1 101.78   -7 Snow
20:00 Legend Double Dagger -1.4 -3.3 87 28 15 24.1 101.86   -6 Snow
21:00 Legend Double Dagger -1.2 -2.8 89 28 14 24.1 101.91   -6 Snow
22:00 Legend Double Dagger -1.0 -2.7 88 29 15 24.1 101.95   -6 Snow
23:00 Legend Double Dagger -1.2 -2.5 91 29 10 24.1 102.01   -5 Snow

Notes on Data Quality.

Legend

  • E = Estimated
  • M = Missing
  • NA = Not Available
  • ‡ = Partner data that is not subject to review by the National Climate Archives
Date modified: